TimeEST,TemperatureF,Dew PointF,Humidity,Sea Level PressureIn,VisibilityMPH,Wind Direction,Wind SpeedMPH,Gust SpeedMPH,PrecipitationIn,Events,Conditions,WindDirDegrees,DateUTC
12:15 AM,59.0,59.0,100,30.25,5.0,Calm,Calm,-,N/A,,Clear,0,2013-01-29 05:15:00
12:55 AM,57.2,55.4,94,30.24,3.0,Calm,Calm,-,N/A,,Mist,0,2013-01-29 05:55:00
1:15 AM,57.2,55.4,94,30.23,1.8,Calm,Calm,-,N/A,,Mist,0,2013-01-29 06:15:00
1:35 AM,57.2,55.4,94,30.23,1.5,ENE,5.8,-,N/A,,Mist,70,2013-01-29 06:35:00
1:55 AM,59.0,59.0,100,30.22,2.5,ENE,4.6,-,N/A,,Mist,70,2013-01-29 06:55:00
2:15 AM,59.0,59.0,100,30.22,3.0,East,4.6,-,N/A,,Mist,90,2013-01-29 07:15:00
2:35 AM,59.0,59.0,100,30.21,3.0,East,4.6,-,N/A,,Mist,100,2013-01-29 07:35:00
2:55 AM,59.0,59.0,100,30.21,3.0,ENE,6.9,-,N/A,,Mist,70,2013-01-29 07:55:00
3:15 AM,59.0,59.0,100,30.21,4.0,East,6.9,-,N/A,,Scattered Clouds,90,2013-01-29 08:15:00
3:35 AM,59.0,59.0,100,30.20,4.0,East,5.8,-,N/A,,Clear,90,2013-01-29 08:35:00
3:55 AM,59.0,59.0,100,30.20,4.0,East,3.5,-,N/A,,Clear,80,2013-01-29 08:55:00
4:15 AM,59.0,59.0,100,30.20,5.0,ENE,5.8,-,N/A,,Clear,60,2013-01-29 09:15:00
4:35 AM,59.0,59.0,100,30.20,5.0,East,4.6,-,N/A,,Clear,80,2013-01-29 09:35:00
4:55 AM,59.0,59.0,100,30.20,4.0,ENE,4.6,-,N/A,,Clear,70,2013-01-29 09:55:00
5:15 AM,59.0,59.0,100,30.20,5.0,East,4.6,-,N/A,,Scattered Clouds,80,2013-01-29 10:15:00
5:35 AM,59.0,59.0,100,30.19,4.0,East,5.8,-,N/A,,Scattered Clouds,90,2013-01-29 10:35:00
5:55 AM,59.0,59.0,100,30.19,4.0,East,6.9,-,N/A,,Scattered Clouds,80,2013-01-29 10:55:00
6:15 AM,59.0,59.0,100,30.20,5.0,ENE,4.6,-,N/A,,Scattered Clouds,70,2013-01-29 11:15:00
6:35 AM,60.8,59.0,94,30.20,7.0,ENE,4.6,-,N/A,,Scattered Clouds,70,2013-01-29 11:35:00
6:55 AM,59.0,59.0,100,30.20,7.0,ENE,4.6,-,N/A,,Clear,60,2013-01-29 11:55:00
7:15 AM,59.0,57.2,94,30.20,5.0,East,4.6,-,N/A,,Clear,90,2013-01-29 12:15:00
7:35 AM,59.0,57.2,94,30.20,4.0,ENE,4.6,-,N/A,,Clear,60,2013-01-29 12:35:00
7:55 AM,59.0,57.2,94,30.21,4.0,ENE,3.5,-,N/A,,Clear,70,2013-01-29 12:55:00
8:15 AM,59.0,59.0,100,30.20,3.0,East,5.8,-,N/A,,Mist,80,2013-01-29 13:15:00
8:35 AM,60.8,59.0,94,30.20,4.0,East,4.6,-,N/A,,Clear,90,2013-01-29 13:35:00
8:55 AM,62.6,60.8,94,30.20,5.0,Calm,Calm,-,N/A,,Clear,0,2013-01-29 13:55:00
9:15 AM,62.6,60.8,94,30.20,7.0,SE,5.8,-,N/A,,Clear,130,2013-01-29 14:15:00
9:35 AM,64.4,62.6,94,30.20,7.0,SE,8.1,-,N/A,,Clear,140,2013-01-29 14:35:00
9:55 AM,69.8,64.4,83,30.20,10.0,SSE,9.2,-,N/A,,Clear,150,2013-01-29 14:55:00
10:15 AM,71.6,64.4,78,30.20,10.0,SE,9.2,-,N/A,,Clear,140,2013-01-29 15:15:00
10:35 AM,71.6,62.6,73,30.20,10.0,South,8.1,-,N/A,,Clear,170,2013-01-29 15:35:00
10:55 AM,73.4,64.4,73,30.20,10.0,SSE,8.1,-,N/A,,Clear,160,2013-01-29 15:55:00
11:15 AM,75.2,64.4,69,30.19,10.0,South,6.9,-,N/A,,Clear,170,2013-01-29 16:15:00
11:35 AM,77.0,64.4,65,30.18,10.0,South,10.4,-,N/A,,Clear,190,2013-01-29 16:35:00
11:55 AM,77.0,62.6,61,30.17,10.0,South,9.2,19.6,N/A,,Clear,170,2013-01-29 16:55:00
12:15 PM,77.0,64.4,65,30.16,10.0,South,9.2,-,N/A,,Clear,170,2013-01-29 17:15:00
12:55 PM,78.8,64.4,61,30.14,10.0,SSW,9.2,-,N/A,,Clear,200,2013-01-29 17:55:00
1:15 PM,80.6,62.6,54,30.12,10.0,SSE,13.8,18.4,N/A,,Scattered Clouds,160,2013-01-29 18:15:00
1:35 PM,80.6,60.8,51,30.11,10.0,South,11.5,21.9,N/A,,Scattered Clouds,190,2013-01-29 18:35:00
1:55 PM,80.6,60.8,51,30.11,10.0,South,13.8,18.4,N/A,,Scattered Clouds,180,2013-01-29 18:55:00
2:15 PM,82.4,62.6,51,30.10,10.0,South,13.8,19.6,N/A,,Scattered Clouds,170,2013-01-29 19:15:00
2:35 PM,82.4,60.8,48,30.08,10.0,SSE,12.7,-,N/A,,Clear,150,2013-01-29 19:35:00
2:55 PM,80.6,60.8,51,30.08,10.0,South,15.0,18.4,N/A,,Scattered Clouds,170,2013-01-29 19:55:00
3:15 PM,82.4,60.8,48,30.07,10.0,SSE,11.5,-,N/A,,Clear,160,2013-01-29 20:15:00
3:35 PM,82.4,60.8,48,30.06,10.0,South,11.5,17.3,N/A,,Clear,170,2013-01-29 20:35:00
3:55 PM,82.4,60.8,48,30.05,10.0,South,10.4,17.3,N/A,,Clear,170,2013-01-29 20:55:00
4:15 PM,82.4,60.8,48,30.05,10.0,SSE,10.4,-,N/A,,Clear,160,2013-01-29 21:15:00
4:35 PM,80.6,59.0,48,30.04,10.0,SSE,11.5,-,N/A,,Clear,160,2013-01-29 21:35:00
4:55 PM,80.6,59.0,48,30.04,10.0,SSE,11.5,17.3,N/A,,Clear,160,2013-01-29 21:55:00
5:15 PM,78.8,60.8,54,30.04,10.0,SSE,15.0,19.6,N/A,,Clear,150,2013-01-29 22:15:00
5:35 PM,77.0,62.6,61,30.04,10.0,SSE,12.7,20.7,N/A,,Clear,160,2013-01-29 22:35:00
5:55 PM,75.2,62.6,65,30.05,10.0,SSE,8.1,-,N/A,,Clear,150,2013-01-29 22:55:00
6:15 PM,73.4,62.6,69,30.05,10.0,SSE,12.7,16.1,N/A,,Clear,160,2013-01-29 23:15:00
6:35 PM,71.6,62.6,73,30.05,10.0,South,12.7,-,N/A,,Scattered Clouds,170,2013-01-29 23:35:00
6:55 PM,71.6,64.4,78,30.06,10.0,South,10.4,-,N/A,,Mostly Cloudy,170,2013-01-29 23:55:00
7:15 PM,71.6,64.4,78,30.07,10.0,South,9.2,16.1,N/A,,Overcast,170,2013-01-30 00:15:00
7:35 PM,71.6,66.2,83,30.08,10.0,South,6.9,-,N/A,,Mostly Cloudy,170,2013-01-30 00:35:00
7:55 PM,71.6,66.2,83,30.08,10.0,South,9.2,-,N/A,,Mostly Cloudy,170,2013-01-30 00:55:00
8:15 PM,71.6,68.0,88,30.07,10.0,South,9.2,-,N/A,,Scattered Clouds,170,2013-01-30 01:15:00
8:35 PM,71.6,68.0,88,30.08,10.0,South,11.5,16.1,N/A,,Mostly Cloudy,180,2013-01-30 01:35:00
8:55 PM,71.6,66.2,83,30.07,10.0,South,11.5,17.3,N/A,,Mostly Cloudy,170,2013-01-30 01:55:00
9:15 PM,69.8,64.4,83,30.06,10.0,SSE,6.9,-,N/A,,Mostly Cloudy,160,2013-01-30 02:15:00
9:35 PM,69.8,64.4,83,30.05,10.0,SE,8.1,-,N/A,,Mostly Cloudy,140,2013-01-30 02:35:00
9:55 PM,68.0,62.6,83,30.05,10.0,SSE,6.9,-,N/A,,Mostly Cloudy,150,2013-01-30 02:55:00
10:15 PM,68.0,62.6,83,30.05,10.0,South,4.6,-,N/A,,Mostly Cloudy,170,2013-01-30 03:15:00
10:35 PM,68.0,64.4,88,30.05,10.0,SSE,3.5,-,N/A,,Mostly Cloudy,160,2013-01-30 03:35:00
10:55 PM,68.0,64.4,88,30.05,10.0,South,6.9,-,N/A,,Mostly Cloudy,170,2013-01-30 03:55:00
11:15 PM,68.0,64.4,88,30.05,10.0,South,6.9,-,N/A,,Mostly Cloudy,170,2013-01-30 04:15:00
11:35 PM,68.0,64.4,88,30.05,10.0,South,6.9,-,N/A,,Scattered Clouds,170,2013-01-30 04:35:00
11:55 PM,68.0,64.4,88,30.04,10.0,SSE,9.2,-,N/A,,Scattered Clouds,160,2013-01-30 04:55:00